Flag for Afghanistan Weather past 2 weeks in Mazari Sharif, Afghanistan

Now
79 °F

Duststorm.


Feels Like: 78 °F
Forecast: 74 / 100 °F
Wind: 20 mph from Southwest

Location: Termez Airport

Current Time: Jul 29, 2014 at 6:32:36 AM

Latest Report: Jul 29, 2014 at 5:30 AM


Visibility: 4 mi

Pressure: 29.59 "Hg

Humidity: 24%

Dew point: 39 °F

Location of Mazari SharifLocation

Historic Weather in Mazari Sharif — Graph

°F

Mazari Sharif temperature yesterday

Maximum temperature yesterday: 109 °F (at 1:30 PM)
Minimum temperature yesterday: 73 °F (at 5:00 AM)
Average temperature yesterday: 92 °F

Past Weeks' High & Low Weather Summary

 TemperatureHumidityPressure
High109 °F (Jul 22, 2:00 PM)69% (Jul 22, 4:30 AM)29.77 "Hg (Jul 22, 4:30 AM)
Low63 °F (Jul 18, 5:00 AM)7% (Jul 22, 2:00 PM)29.45 "Hg (Jul 22, 6:00 PM)
Average87 °F26%29.64 "Hg
* Reported Jul 14 4:30 AM — Jul 29 5:00 AM, Mazari Sharif, Weather by CustomWeather, © 2014

Note: Actual official high and low records may vary slightly from our data, if they occured in-between our weather recording intervals... More about our weather records

Advertising

Mazari Sharif weather history for previous 24 hours

 ConditionsComfort  
Time TempWeatherWind HumidityBarometerVisibility
5:00 AM
Jul 29
79 °FDuststorm.20 mph24%29.59 "Hg4 mi
4:30 AM79 °FDuststorm.20 mph24%29.56 "Hg3 mi
4:00 AM81 °FDuststorm.20 mph24%29.56 "Hg4 mi
3:30 AM79 °FDuststorm.13 mph24%29.56 "Hg3 mi
3:00 AM81 °FDuststorm.8 mph23%29.56 "Hg3 mi
2:30 AM81 °FHaze.8 mph24%29.56 "Hg3 mi
1:30 AM81 °FClear.8 mph28%29.56 "Hg4 mi
1:00 AM81 °FPassing clouds.3 mph30%29.53 "HgN/A
12:30 AM81 °FClear.8 mph30%29.53 "Hg10 mi
12:00 AM82 °FClear.8 mph30%29.53 "Hg10 mi
11:30 PM
Jul 28
82 °FClear.6 mph32%29.53 "Hg10 mi
11:00 PM84 °FClear.3 mph31%29.53 "Hg10 mi
10:30 PM84 °FClear.3 mph33%29.53 "Hg10 mi
10:00 PM84 °FClear.6 mph31%29.53 "Hg10 mi
9:30 PM86 °FClear.3 mph29%29.53 "Hg10 mi
9:00 PM88 °FClear.6 mph27%29.53 "Hg10 mi
8:30 PM88 °FClear.6 mph27%29.53 "Hg10 mi
8:00 PM91 °FClear.8 mph21%29.50 "Hg10 mi
7:30 PM90 °FClear.6 mph26%29.50 "Hg10 mi
7:00 PM91 °FSunny.8 mph24%29.47 "Hg10 mi
6:30 PM93 °FSunny.8 mph24%29.47 "Hg10 mi
6:00 PM97 °FSunny.8 mph25%29.47 "Hg10 mi
5:30 PM100 °FSunny.8 mph22%29.47 "Hg10 mi
5:00 PM104 °FSunny.8 mph14%29.47 "Hg10 mi
4:30 PM106 °FSunny.10 mph13%29.47 "Hg10 mi
4:00 PM108 °FSunny.10 mph10%29.50 "Hg10 mi
3:30 PM108 °FSunny.10 mph10%29.50 "Hg10 mi
3:00 PM108 °FSunny.8 mph11%29.50 "Hg10 mi
2:30 PM108 °FPassing clouds.8 mph13%29.53 "HgN/A
1:30 PM109 °FPassing clouds.3 mph7%29.56 "HgN/A
1:00 PM108 °FPassing clouds.3 mph10%29.56 "HgN/A
12:30 PM106 °FPassing clouds.3 mph11%29.59 "HgN/A
12:00 PM104 °FPassing clouds.3 mph14%29.59 "HgN/A
11:30 AM102 °FPassing clouds.3 mph13%29.59 "HgN/A
11:00 AM100 °FPassing clouds.3 mph20%29.59 "HgN/A
10:30 AM99 °FSunny.1 mph19%29.59 "Hg10 mi
10:00 AM97 °FSunny.1 mph20%29.59 "Hg10 mi
9:30 AM95 °FSunny.1 mph19%29.59 "Hg10 mi
9:00 AM95 °FSunny.No wind18%29.59 "Hg10 mi
8:30 AM91 °FSunny.1 mph21%29.59 "Hg10 mi
7:30 AM84 °FSunny.1 mph40%29.59 "Hg10 mi
6:30 AM79 °FSunny.3 mph48%29.59 "Hg10 mi
6:00 AM75 °FSunny.3 mph57%29.59 "Hg10 mi
Weather by CustomWeather, © 2014

See weather overviewHow to use our weather pages